GFSFLT2_925_temp_000.txt.gz
Temp
4 4 4 5 5 5 6 6 6 6 6 7 7 7 8 8 8 9 9 10 10 11 12 12 12 13 14
3 4 4 4 4 4 5 5 5 5 5 6 6 7 7 7 8 8 8 9 10 11 11 11 11 12 13
3 2 3 3 3 3 3 4 4 5 5 5 6 6 6 6 7 8 7 8 9 10 10 10 11 11 11
1 2 2 2 2 3 3 3 3 3 4 4 5 5 6 6 6 7 7 8 8 8 9 9 9 10 10
1 1 2 2 2 2 2 2 2 2 3 3 4 4 4 4 5 6 7 8 7 7 7 7 8 8 9
0 2 1 1 1 1 0 1 1 2 3 3 3 3 3 4 4 5 6 7 7 7 7 6 6 6 8
-0 0 -0 -0 -1 -1 -0 0 1 2 1 2 2 2 3 3 4 4 4 5 6 6 6 6 5 6 7
-1 -2 -2 -2 -1 -1 -1 -1 -0 1 1 1 1 2 2 1 1 3 3 4 4 4 4 5 5 5 6
-2 -2 -2 -2 -2 -2 -2 -1 -0 1 0 -0 0 0 0 1 1 2 2 1 2 3 4 4 5 6 6
-3 -3 -3 -3 -2 -2 -3 -2 -2 -1 -0 -1 -1 -1 0 2 -0 0 0 2 3 5 6 6 7 7 8
-4 -4 -3 -3 -3 -3 -4 -4 -3 -2 -2 -2 -2 -1 -1 -0 0 1 1 0 2 4 4 4 6 5 5
-4 -4 -4 -4 -4 -4 -4 -4 -4 -4 -4 -3 -3 -2 -2 -1 -1 0 -1 -0 1 2 3 3 3 3 4
-4 -4 -5 -5 -5 -5 -4 -4 -4 -3 -3 -3 -4 -4 -4 -3 -2 -1 -1 -1 -1 0 0 0 1 1 2
-5 -5 -5 -5 -4 -4 -4 -3 -3 -2 -3 -4 -5 -5 -4 -4 -3 -0 -1 -1 -2 -1 -1 -1 -0 -0 -0
-6 -6 -5 -5 -5 -5 -4 -3 -3 -3 -3 -4 -5 -5 -4 -3 -1 -1 -2 -3 -2 -2 -1 -2 -1 -1 -0
-6 -6 -5 -5 -5 -4 -4 -3 -3 -4 -5 -6 -6 -4 -3 -4 -4 -3 -3 -3 -3 -2 -2 -1 -2 -1 -0
-7 -6 -6 -6 -5 -4 -3 -4 -4 -4 -5 -6 -6 -5 -2 -3 -4 -5 -4 -4 -3 -3 -3 -3 -3 -2 -1

GFSFLT2_925_temp_006.txt.gz
Temp
1 1 1 1 1 1 1 1 2 2 3 3 3 4 4 4 5 5 5 5 6 7 7 8 9 10 10
1 1 0 0 0 0 1 1 1 1 1 2 2 2 3 3 3 4 4 4 4 5 5 6 7 8 9
-0 -0 -0 -0 -0 -0 -0 -0 -0 0 0 1 1 1 2 2 3 3 3 2 3 4 4 6 7 8 9
-1 -2 -1 -1 -2 -1 -1 -1 -1 -1 -1 -1 -0 -0 1 1 2 2 3 3 3 4 4 5 6 6 7
-2 -2 -2 -1 -2 -2 -2 -2 -2 -2 -2 -2 -2 -1 -1 -0 1 1 2 3 3 2 4 4 5 5 6
-2 -1 -2 -2 -3 -3 -3 -3 -3 -2 -2 -3 -2 -2 -1 -1 0 1 1 2 2 3 3 4 3 4 5
-2 -2 -3 -4 -3 -4 -3 -3 -3 -3 -3 -3 -2 -2 -2 -1 -1 -0 -0 1 1 2 2 2 3 4 4
-2 -3 -3 -3 -3 -3 -3 -4 -4 -4 -3 -3 -3 -3 -2 -2 -2 -2 -1 0 0 -0 -0 1 2 2 3
-3 -3 -3 -3 -3 -3 -4 -4 -4 -4 -4 -4 -4 -3 -3 -3 -3 -2 -2 -1 -1 -1 -0 1 1 1 2
-4 -5 -5 -5 -4 -4 -5 -5 -5 -5 -4 -5 -4 -4 -4 -3 -2 -1 -2 -3 -2 -2 -1 -1 0 0 1
-5 -5 -5 -5 -5 -5 -6 -6 -6 -5 -5 -4 -4 -4 -4 -4 -3 -2 -2 -3 -3 -3 -2 -1 0 4 3
-5 -5 -5 -6 -6 -6 -6 -6 -6 -6 -5 -5 -4 -4 -4 -3 -4 -3 -4 -4 -3 -2 -1 -0 1 4 4
-6 -6 -6 -7 -7 -6 -6 -6 -6 -5 -5 -4 -5 -4 -5 -6 -5 -5 -4 -3 -3 -2 -1 -1 0 2 3
-6 -7 -7 -7 -7 -6 -6 -6 -5 -4 -4 -5 -6 -6 -5 -5 -5 -4 -4 -4 -2 -1 -1 -1 -0 1 3
-7 -7 -7 -7 -6 -6 -6 -5 -4 -4 -4 -5 -6 -6 -6 -5 -4 -3 -3 -2 -2 -1 -1 -0 -1 0 2
-7 -7 -7 -7 -7 -6 -6 -5 -5 -5 -5 -5 -6 -6 -5 -4 -4 -4 -3 -3 -2 -1 -1 0 -0 -1 1
-7 -7 -7 -7 -6 -6 -5 -5 -5 -5 -5 -5 -6 -6 -5 -5 -5 -3 -3 -3 -2 -2 -1 -0 0 -0 -0

GFSFLT2_925_temp_009.txt.gz
Temp
1 0 0 -0 -0 -0 -0 -0 -0 0 1 1 1 2 1 2 2 3 3 4 4 5 5 5 4 6 7
0 -0 -0 -0 -1 -1 -1 -1 -1 -1 -0 0 0 0 1 1 2 2 1 2 3 3 4 4 4 4 6
-1 -1 -1 -1 -2 -2 -2 -2 -1 -1 -1 -1 -1 -1 -0 0 0 1 2 1 2 2 3 3 4 4 5
-1 -2 -2 -2 -2 -2 -2 -2 -2 -3 -2 -2 -2 -2 -1 -1 -1 -0 0 1 1 2 3 3 3 3 3
-2 -3 -2 -2 -2 -3 -3 -3 -3 -3 -3 -3 -3 -3 -3 -3 -2 -1 -0 -0 0 1 1 3 3 3 3
-3 -3 -3 -3 -3 -3 -4 -4 -4 -3 -3 -4 -4 -4 -3 -3 -2 -1 -1 -0 0 0 0 2 2 3 3
-2 -3 -3 -3 -4 -4 -4 -4 -4 -4 -4 -4 -4 -4 -4 -3 -3 -2 -2 -2 -1 -1 0 1 2 3 3
-3 -3 -4 -4 -3 -4 -4 -5 -5 -4 -4 -5 -4 -4 -4 -4 -4 -3 -2 -2 -2 -1 -1 -1 -0 1 1
-3 -4 -4 -4 -4 -4 -5 -5 -5 -4 -5 -5 -5 -5 -5 -5 -4 -3 -2 -2 -1 -1 -1 -0 -0 1 1
-5 -5 -5 -5 -5 -5 -6 -6 -6 -6 -5 -5 -5 -5 -4 -4 -3 -3 -3 -3 -2 -2 -2 -2 -1 -1 -0
-6 -6 -6 -6 -6 -6 -7 -7 -6 -6 -6 -5 -5 -5 -5 -5 -4 -3 -3 -3 -3 -4 -4 -3 -2 -1 -0
-6 -6 -6 -7 -7 -7 -7 -7 -7 -6 -6 -6 -5 -5 -5 -4 -5 -4 -4 -5 -4 -4 -3 -3 -1 -1 0
-6 -7 -7 -7 -7 -7 -7 -7 -6 -6 -5 -4 -4 -5 -6 -6 -5 -5 -4 -3 -4 -3 -2 -1 -1 0 2
-7 -7 -7 -7 -7 -7 -7 -6 -6 -5 -5 -5 -5 -5 -6 -7 -7 -5 -4 -3 -2 -2 -1 -0 -0 1 2
-7 -7 -7 -7 -7 -7 -7 -6 -6 -5 -5 -5 -5 -6 -6 -7 -6 -4 -3 -3 -2 -1 -1 -0 -1 0 2
-7 -7 -7 -7 -7 -6 -6 -6 -5 -5 -5 -5 -5 -6 -5 -4 -4 -4 -3 -3 -2 -1 -0 -0 -0 -0 1
-8 -7 -8 -7 -7 -6 -6 -5 -5 -5 -5 -5 -5 -6 -6 -5 -5 -3 -3 -3 -2 -1 -1 -0 -0 -0 -0

GFSFLT2_925_temp_012.txt.gz
Temp
-0 -0 -0 -1 -1 -1 -1 -2 -2 -1 -0 0 0 1 1 1 1 1 2 2 2 3 3 4 5 5 6
-1 -1 -1 -1 -1 -2 -2 -2 -2 -2 -1 -1 -1 -0 0 0 0 1 1 -0 0 1 2 3 3 3 4
-1 -1 -1 -1 -3 -2 -2 -2 -2 -2 -2 -2 -2 -1 -1 -1 -1 -1 -0 0 0 1 2 2 2 3 4
-2 -2 -2 -3 -2 -2 -3 -3 -3 -3 -4 -3 -2 -2 -2 -2 -2 -2 -1 -1 -1 -0 0 1 2 2 3
-2 -2 -3 -2 -3 -3 -3 -3 -4 -4 -4 -4 -4 -4 -4 -4 -3 -3 -3 -2 -1 -0 0 0 1 2 2
-3 -3 -3 -3 -3 -4 -4 -5 -4 -4 -4 -4 -4 -4 -4 -4 -4 -3 -2 -2 -2 -1 -1 -1 0 1 2
-3 -4 -4 -4 -4 -4 -4 -5 -5 -4 -5 -5 -4 -5 -4 -4 -4 -4 -3 -2 -2 -2 -2 -1 -0 0 1
-3 -4 -4 -4 -4 -4 -5 -5 -5 -5 -5 -5 -5 -5 -5 -5 -5 -4 -3 -3 -2 -2 -1 -1 -1 -0 0
-4 -4 -4 -4 -5 -5 -6 -6 -6 -5 -5 -6 -6 -6 -6 -6 -5 -4 -3 -2 -2 -2 -1 -1 -1 -1 -0
-6 -6 -6 -6 -5 -6 -6 -6 -6 -6 -5 -6 -6 -6 -5 -4 -4 -4 -4 -4 -3 -3 -2 -2 -1 -1 -2
-6 -6 -6 -6 -6 -7 -7 -7 -7 -6 -6 -6 -5 -5 -5 -5 -4 -4 -5 -4 -4 -5 -4 -3 -3 -2 -2
-7 -6 -6 -7 -7 -7 -7 -7 -7 -7 -6 -6 -6 -5 -5 -4 -5 -4 -5 -5 -5 -4 -4 -4 -3 -2 -2
-6 -7 -7 -7 -7 -7 -7 -7 -7 -7 -6 -6 -5 -5 -5 -5 -6 -6 -5 -4 -4 -3 -3 -2 -2 -2 -2
-7 -7 -7 -7 -7 -7 -7 -7 -7 -6 -5 -5 -5 -5 -6 -6 -7 -6 -5 -5 -3 -3 -2 -1 -0 -0 0
-8 -8 -7 -7 -7 -7 -7 -6 -6 -5 -5 -5 -5 -5 -5 -6 -6 -5 -5 -3 -3 -1 -1 -1 -0 -1 1
-8 -8 -8 -7 -8 -7 -7 -6 -5 -5 -5 -5 -5 -5 -5 -4 -4 -4 -2 -3 -2 -1 -1 -0 -0 -1 0
-9 -8 -8 -8 -7 -7 -6 -6 -5 -4 -5 -5 -5 -5 -5 -4 -4 -3 -2 -1 -2 -1 -1 -1 -0 -1 0

GFSFLT2_925_temp_015.txt.gz
Temp
-2 -2 -2 -2 -1 -1 -1 -2 -3 -2 -1 -0 -0 -0 0 1 0 0 1 1 1 2 2 3 3 3 3
-2 -2 -2 -2 -2 -2 -3 -3 -2 -2 -2 -1 -1 -1 -0 -1 -1 -1 -0 0 0 1 1 0 1 2 3
-2 -2 -2 -2 -2 -3 -3 -2 -3 -3 -2 -2 -2 -2 -1 -1 -1 -1 -1 -1 -1 -1 -0 0 1 2 3
-3 -2 -2 -3 -3 -3 -3 -3 -3 -3 -4 -4 -3 -3 -3 -2 -2 -2 -2 -2 -2 -1 -1 -1 -0 1 1
-2 -3 -4 -3 -4 -4 -4 -4 -4 -4 -4 -4 -4 -4 -4 -4 -4 -3 -3 -3 -2 -2 -2 -1 -1 0 1
-4 -3 -4 -4 -4 -4 -4 -5 -5 -4 -4 -5 -5 -5 -5 -5 -4 -4 -3 -2 -2 -2 -2 -1 -1 -1 -0
-4 -4 -4 -5 -5 -5 -5 -5 -5 -5 -5 -5 -5 -5 -5 -5 -4 -4 -3 -3 -2 -2 -2 -2 -1 -0 0
-4 -4 -5 -4 -4 -5 -6 -6 -5 -5 -5 -6 -6 -6 -6 -6 -5 -4 -4 -3 -2 -2 -2 -1 -1 -1 -1
-4 -4 -5 -5 -5 -5 -6 -6 -6 -5 -6 -6 -6 -6 -6 -6 -5 -5 -4 -3 -2 -2 -2 -1 -1 -1 -1
-6 -6 -6 -6 -6 -6 -7 -6 -6 -6 -5 -6 -6 -6 -5 -4 -4 -4 -5 -4 -4 -3 -3 -2 -2 -2 -2
-7 -7 -6 -6 -6 -7 -7 -7 -7 -7 -6 -6 -6 -6 -6 -5 -4 -4 -4 -4 -5 -5 -5 -4 -3 -3 -2
-7 -6 -7 -7 -7 -7 -7 -7 -7 -7 -7 -7 -6 -6 -6 -5 -5 -4 -4 -5 -5 -6 -5 -4 -3 -3 -2
-7 -7 -7 -8 -8 -7 -7 -7 -7 -7 -6 -6 -6 -6 -5 -5 -5 -5 -5 -4 -5 -5 -4 -3 -3 -3 -3
-8 -8 -8 -8 -8 -7 -7 -7 -7 -6 -5 -5 -5 -5 -5 -5 -6 -6 -5 -5 -4 -4 -2 -1 -1 -1 -1
-8 -8 -8 -8 -8 -7 -7 -7 -7 -6 -5 -5 -5 -5 -5 -5 -6 -4 -4 -3 -2 -1 -1 -1 -1 -1 -1
-9 -9 -9 -8 -8 -7 -7 -7 -6 -6 -5 -5 -5 -5 -4 -3 -4 -4 -3 -2 -1 -1 -1 -0 -0 -0 0
-9 -9 -8 -9 -8 -8 -7 -7 -6 -5 -5 -5 -5 -5 -4 -3 -3 -2 -3 -1 -1 -1 -1 -1 -1 -1 2

GFSFLT2_925_temp_018.txt.gz
Temp
-2 -2 -3 -2 -2 -2 -2 -2 -2 -2 -2 -1 -1 -0 0 -0 0 0 0 1 1 1 1 2 2 3 3
-3 -3 -2 -2 -2 -3 -3 -3 -3 -2 -2 -2 -1 -1 -1 -1 -1 -1 -1 -0 -0 -0 0 1 1 2 2
-3 -3 -3 -3 -4 -4 -3 -3 -3 -3 -3 -3 -2 -2 -2 -2 -2 -2 -2 -1 -1 -1 -0 0 0 1 1
-3 -3 -4 -4 -4 -4 -4 -4 -4 -4 -4 -4 -3 -3 -3 -3 -3 -2 -2 -2 -2 -2 -1 -1 -1 -0 0
-4 -4 -3 -4 -4 -5 -5 -4 -4 -4 -4 -4 -5 -4 -5 -4 -4 -4 -4 -3 -3 -2 -2 -2 -1 -1 -0
-4 -4 -4 -5 -5 -5 -5 -5 -5 -4 -4 -5 -5 -5 -5 -5 -5 -4 -3 -3 -2 -2 -2 -2 -1 -1 -1
-4 -5 -5 -5 -5 -5 -5 -5 -5 -5 -5 -5 -5 -5 -5 -5 -5 -4 -4 -3 -3 -2 -2 -2 -2 -1 -1
-4 -5 -5 -4 -5 -5 -6 -6 -5 -5 -5 -6 -6 -6 -6 -6 -5 -4 -4 -3 -3 -3 -2 -2 -1 -1 -1
-4 -4 -5 -5 -5 -6 -6 -6 -6 -5 -6 -6 -6 -6 -6 -6 -5 -5 -4 -3 -2 -2 -2 -2 -2 -1 -1
-6 -7 -7 -7 -6 -6 -7 -7 -7 -6 -5 -6 -6 -6 -6 -4 -4 -5 -5 -5 -4 -3 -3 -2 -2 -2 -2
-7 -7 -7 -7 -7 -7 -7 -7 -7 -7 -6 -6 -6 -6 -6 -6 -5 -4 -4 -4 -5 -5 -4 -4 -3 -3 -3
-7 -7 -7 -8 -8 -8 -8 -8 -8 -7 -7 -7 -7 -6 -6 -6 -5 -4 -4 -4 -5 -5 -5 -5 -4 -3 -2
-7 -8 -8 -8 -9 -8 -8 -8 -8 -7 -7 -6 -6 -6 -6 -5 -5 -4 -4 -3 -4 -5 -4 -4 -4 -4 -3
-8 -9 -9 -9 -8 -8 -8 -8 -7 -7 -6 -5 -5 -5 -5 -5 -5 -4 -4 -4 -3 -3 -2 -2 -1 -1 -1
-9 -9 -9 -9 -9 -8 -8 -8 -8 -7 -6 -5 -4 -5 -5 -4 -4 -3 -3 -3 -2 -1 -1 -1 -1 -1 -1
-9 -9 -9 -9 -8 -8 -8 -8 -7 -7 -6 -5 -5 -4 -3 -2 -2 -4 -2 -2 -1 -1 -1 -1 -0 -1 -1
-10 -9 -9 -9 -9 -9 -8 -8 -7 -6 -5 -5 -5 -4 -4 -4 -2 -1 -3 -2 -1 -1 -1 -1 -1 1 2

GFSFLT2_925_temp_021.txt.gz
Temp
-1 -2 -2 -2 -1 -2 -2 -2 -2 -2 -2 -1 -1 -1 -0 -0 0 0 0 0 1 1 1 1 2 2 2
-2 -2 -2 -2 -2 -3 -3 -3 -3 -3 -3 -2 -2 -2 -1 -1 -1 -1 -1 -0 -1 -0 0 1 1 1 2
-2 -2 -2 -3 -3 -3 -3 -3 -3 -3 -3 -3 -3 -2 -2 -2 -2 -1 -1 -1 -1 -1 -1 -1 -0 0 1
-2 -3 -3 -3 -3 -3 -3 -3 -3 -4 -4 -4 -3 -3 -3 -3 -3 -2 -2 -2 -2 -2 -1 -2 -1 -1 0
-3 -3 -3 -3 -3 -3 -4 -4 -4 -4 -4 -4 -3 -4 -4 -4 -4 -3 -3 -3 -3 -2 -2 -2 -1 -1 -1
-3 -3 -3 -3 -4 -4 -4 -4 -4 -4 -3 -4 -4 -4 -4 -4 -4 -4 -3 -3 -3 -2 -2 -2 -1 -1 -1
-3 -4 -4 -4 -5 -5 -4 -4 -4 -4 -4 -4 -4 -4 -4 -4 -4 -4 -4 -3 -3 -2 -2 -2 -2 -1 -1
-4 -4 -5 -4 -4 -4 -5 -5 -5 -5 -4 -4 -4 -4 -5 -5 -4 -4 -4 -3 -3 -2 -2 -2 -2 -2 -1
-4 -4 -5 -5 -5 -6 -5 -5 -5 -5 -5 -5 -4 -5 -5 -5 -4 -4 -3 -3 -3 -3 -2 -2 -1 -1 -1
-5 -6 -6 -6 -6 -6 -7 -6 -6 -5 -4 -5 -5 -5 -4 -3 -3 -4 -4 -4 -3 -3 -3 -2 -2 -2 -2
-6 -6 -6 -6 -6 -7 -7 -8 -7 -7 -6 -6 -6 -6 -5 -4 -4 -4 -4 -4 -4 -4 -3 -3 -3 -3 -2
-7 -7 -7 -7 -8 -8 -8 -8 -8 -8 -8 -8 -7 -6 -6 -4 -3 -3 -3 -3 -3 -3 -3 -3 -3 -2 -2
-7 -7 -8 -8 -9 -8 -8 -8 -8 -8 -7 -7 -7 -6 -6 -4 -3 -3 -2 -2 -2 -3 -2 -2 -2 -3 -3
-8 -8 -8 -8 -8 -8 -8 -8 -8 -7 -6 -6 -6 -5 -4 -4 -4 -3 -3 -2 -2 -2 -2 -1 -1 -1 -2
-8 -8 -8 -8 -8 -8 -8 -8 -8 -7 -6 -5 -5 -5 -4 -4 -3 -2 -2 -2 -2 -2 -1 -1 -1 -1 -1
-9 -9 -9 -9 -8 -8 -8 -8 -7 -7 -6 -5 -4 -4 -3 -1 -0 -2 -2 -2 -2 -1 -1 -1 0 0 1
-9 -9 -9 -8 -8 -8 -8 -8 -7 -6 -5 -4 -5 -4 -3 -2 -1 -1 -2 -2 -2 -1 -1 -1 -1 -0 1

GFSFLT2_925_temp_024.txt.gz
Temp
1 1 0 0 1 1 0 -1 -1 -0 -1 -1 -1 -1 -1 -0 -0 -0 0 0 0 1 1 1 2 2 2
0 -0 0 0 -0 -1 -1 -0 -1 -1 -1 -1 -1 -1 -1 -1 -1 -1 -1 -0 -0 -0 0 0 1 1 2
-0 -0 0 -1 -1 -1 -1 -1 -1 -1 -1 -2 -2 -2 -1 -1 -1 -1 -1 -1 -1 -1 -0 -0 0 0 1
-0 -1 -1 -1 -1 -0 -1 -1 -1 -2 -2 -2 -2 -2 -2 -1 -1 -1 -1 -2 -2 -1 -1 -1 -1 -0 -0
-1 -2 -1 -0 -0 -1 -1 -2 -2 -2 -2 -2 -1 -2 -2 -2 -2 -2 -2 -2 -2 -2 -2 -2 -1 -1 -1
-2 -1 -1 -1 -2 -2 -3 -3 -2 -2 -2 -2 -2 -2 -2 -2 -2 -2 -2 -2 -2 -2 -2 -2 -1 -1 -1
-2 -2 -2 -2 -3 -4 -3 -3 -3 -3 -3 -3 -3 -2 -2 -2 -2 -2 -2 -2 -2 -2 -2 -2 -2 -1 -1
-2 -3 -3 -4 -4 -4 -4 -4 -4 -3 -3 -2 -3 -3 -3 -3 -3 -3 -2 -2 -2 -2 -2 -2 -1 -1 -1
-3 -3 -3 -3 -4 -5 -5 -4 -3 -3 -4 -4 -3 -3 -4 -3 -3 -1 -1 -1 -2 -2 -2 -2 -2 -2 -1
-3 -3 -4 -4 -4 -4 -5 -5 -5 -4 -3 -4 -5 -4 -3 -2 -2 -3 -2 -2 -2 -1 -1 -1 -1 -2 -2
-4 -4 -4 -4 -4 -4 -5 -6 -6 -6 -5 -6 -5 -5 -5 -4 -3 -3 -3 -2 -2 -1 -1 -1 -1 -1 -1
-5 -5 -5 -5 -6 -6 -7 -7 -7 -7 -7 -7 -6 -6 -5 -4 -3 -2 -2 -2 -2 -2 -2 -2 -2 -1 -1
-6 -6 -6 -6 -7 -7 -7 -7 -7 -7 -6 -6 -6 -6 -5 -4 -3 -3 -2 -2 -2 -2 -2 -1 -2 -2 -1
-6 -6 -7 -7 -6 -6 -6 -7 -6 -6 -5 -5 -5 -5 -5 -4 -3 -3 -2 -1 -1 -1 -1 -1 -1 -1 -1
-7 -7 -7 -7 -7 -7 -7 -6 -6 -6 -5 -5 -4 -4 -4 -4 -3 -2 -1 -1 -1 -2 -2 -1 -0 -1 -1
-8 -7 -7 -7 -7 -6 -6 -6 -6 -5 -5 -5 -4 -3 -2 -1 -1 -1 -0 -1 -1 -2 -1 -1 -0 0 -1
-8 -8 -7 -7 -7 -7 -6 -6 -5 -5 -5 -4 -3 -3 -2 -2 -1 -1 -1 -2 -2 -1 -0 -1 -1 -1 -0

GFSFLT2_925_temp_027.txt.gz
Temp
2 2 1 1 1 1 1 0 0 0 0 0 0 0 0 0 0 0 0 0 1 1 1 1 2 2 2
1 1 0 1 0 0 -0 -0 -0 0 0 0 0 0 0 0 0 0 0 0 0 0 0 1 1 1 2
0 0 -0 -0 -1 -1 -0 0 -0 -0 -1 -0 -1 -1 -0 -0 0 0 0 0 0 0 0 0 0 1 1
-1 -1 -1 -1 -1 -0 -0 -1 -1 -1 -1 -1 -1 -1 -1 -0 -1 -1 -1 -1 -0 -0 -0 -0 -1 -0 0
-2 -1 -1 -1 -1 -1 -1 -2 -2 -2 -2 -2 -1 -2 -2 -2 -1 -1 -1 -1 -0 -1 -1 -1 -0 -1 -0
-2 -2 -1 -1 -1 -2 -3 -3 -3 -2 -2 -3 -3 -2 -2 -2 -1 -1 -1 -1 -1 -0 -0 -0 -0 -0 -0
-2 -1 -2 -2 -3 -3 -3 -3 -3 -3 -3 -4 -3 -3 -2 -2 -2 -1 -1 -1 -1 -1 -0 -0 -0 -0 -0
-1 -2 -2 -3 -4 -4 -3 -4 -4 -4 -3 -4 -3 -3 -3 -3 -3 -2 -2 -1 -1 -0 -0 -0 0 -0 -1
-2 -3 -3 -2 -2 -3 -4 -4 -4 -4 -4 -4 -4 -3 -4 -4 -4 -2 -1 -1 -1 -1 -1 -0 0 0 -0
-4 -3 -3 -3 -3 -3 -4 -4 -4 -5 -4 -4 -5 -5 -5 -3 -3 -3 -3 -3 -2 -2 -1 -0 -0 -1 -1
-4 -4 -4 -4 -4 -4 -5 -5 -5 -5 -5 -6 -6 -6 -6 -5 -4 -4 -4 -3 -2 -2 -2 -1 -1 -0 -1
-4 -4 -5 -5 -5 -6 -6 -6 -6 -6 -6 -6 -6 -6 -6 -5 -5 -4 -4 -3 -3 -2 -3 -2 -1 -1 -1
-5 -5 -5 -6 -6 -6 -6 -6 -6 -6 -6 -6 -6 -6 -5 -5 -5 -4 -3 -3 -3 -3 -2 -2 -1 -1 -2
-6 -6 -6 -6 -6 -6 -6 -6 -6 -6 -5 -5 -5 -5 -5 -4 -4 -4 -3 -3 -2 -2 -2 -2 -1 -1 -1
-6 -7 -7 -7 -6 -6 -6 -6 -6 -6 -5 -5 -5 -5 -4 -4 -3 -3 -2 -2 -1 -1 -2 -1 -1 -0 -1
-7 -7 -7 -7 -7 -6 -6 -6 -6 -5 -5 -5 -4 -4 -3 -2 -1 -2 -2 -2 -2 -2 -2 -1 -1 -0 -1
-7 -7 -7 -7 -6 -7 -6 -6 -5 -5 -5 -4 -4 -4 -3 -3 -1 -1 -2 -3 -3 -2 -1 -1 -1 -1 -1

GFSFLT2_925_temp_033.txt.gz
Temp
-1 -1 -1 -1 -1 -1 -1 -1 -2 -1 -1 -0 0 1 1 1 1 1 1 1 1 1 1 2 2 3 3
-2 -2 -2 -2 -2 -2 -2 -2 -2 -2 -1 -1 -0 -0 -0 -0 0 0 0 1 1 1 1 1 2 2 2
-2 -2 -2 -3 -3 -3 -3 -3 -3 -2 -2 -2 -2 -2 -1 -1 -0 -0 -0 -0 -0 0 0 0 1 1 1
-3 -3 -3 -3 -3 -3 -3 -3 -3 -3 -3 -3 -3 -2 -2 -2 -2 -2 -2 -2 -1 -1 -0 -0 0 1 1
-4 -3 -3 -3 -3 -3 -3 -3 -3 -3 -4 -3 -3 -3 -4 -4 -3 -3 -3 -2 -1 -1 -1 -0 -0 0 1
-3 -3 -3 -4 -3 -3 -4 -4 -4 -3 -3 -4 -4 -4 -4 -4 -4 -3 -2 -2 -2 -1 -1 -1 -1 -0 0
-3 -3 -4 -4 -3 -4 -4 -4 -4 -4 -4 -4 -4 -5 -4 -4 -4 -3 -3 -3 -2 -2 -1 -1 -0 0 0
-3 -3 -3 -3 -4 -4 -4 -4 -4 -4 -4 -5 -4 -4 -4 -5 -5 -4 -4 -3 -2 -2 -1 -1 -1 -1 -0
-3 -3 -3 -3 -3 -4 -5 -5 -5 -5 -5 -5 -5 -5 -6 -6 -5 -4 -4 -3 -3 -3 -3 -2 -2 -1 -1
-4 -4 -4 -4 -5 -5 -5 -6 -6 -5 -5 -6 -6 -6 -5 -4 -4 -4 -5 -5 -5 -4 -3 -3 -2 -2 -2
-5 -5 -5 -5 -6 -6 -6 -6 -6 -6 -6 -6 -6 -6 -6 -6 -5 -5 -5 -5 -5 -5 -5 -4 -3 -3 -3
-6 -6 -6 -6 -6 -7 -7 -7 -7 -7 -7 -7 -7 -7 -6 -6 -6 -5 -5 -5 -5 -5 -5 -5 -4 -3 -3
-7 -7 -7 -7 -7 -7 -7 -7 -7 -7 -7 -7 -7 -7 -7 -6 -6 -6 -5 -5 -5 -5 -4 -4 -4 -3 -3
-7 -7 -8 -8 -8 -8 -8 -8 -8 -7 -6 -6 -6 -6 -6 -6 -6 -5 -5 -5 -4 -5 -4 -4 -3 -3 -3
-8 -8 -8 -8 -8 -8 -8 -8 -7 -7 -7 -6 -6 -6 -6 -6 -6 -5 -5 -5 -4 -4 -4 -3 -3 -3 -3
-8 -8 -8 -8 -8 -8 -7 -8 -8 -7 -7 -7 -7 -6 -5 -4 -4 -5 -4 -4 -3 -3 -3 -3 -3 -2 -2
-9 -9 -9 -8 -7 -8 -8 -8 -7 -7 -7 -7 -6 -5 -5 -4 -2 -2 -3 -3 -3 -3 -3 -3 -3 -2 -2

GFSFLT2_925_temp_039.txt.gz
Temp
-0 1 -0 -0 -1 -1 -2 -2 -2 -3 -2 -2 -1 -1 -0 0 1 1 1 1 1 2 2 2 2 3 3
-1 -1 -1 -1 -1 -2 -2 -2 -3 -3 -3 -2 -2 -1 -1 -1 -0 -0 -0 0 1 1 1 1 1 2 2
-3 -2 -2 -1 -2 -2 -3 -3 -4 -4 -3 -3 -3 -2 -2 -1 -1 -0 -0 -0 -0 -0 0 0 1 1 1
-2 -2 -2 -2 -3 -3 -4 -4 -4 -4 -3 -4 -3 -3 -2 -2 -2 -2 -2 -2 -2 -1 -1 -1 -0 0 1
-3 -3 -3 -4 -4 -3 -5 -5 -5 -4 -3 -4 -4 -4 -4 -4 -4 -3 -3 -3 -2 -2 -1 -1 -1 -0 0
-2 -3 -4 -3 -4 -4 -5 -5 -5 -4 -4 -4 -5 -5 -5 -4 -4 -4 -3 -2 -2 -2 -1 -1 -1 -1 -1
-2 -3 -4 -3 -4 -5 -5 -5 -5 -5 -5 -5 -5 -5 -5 -5 -4 -4 -3 -3 -2 -2 -2 -2 -1 -1 -1
-3 -3 -3 -3 -4 -4 -4 -5 -5 -5 -5 -6 -5 -5 -5 -5 -5 -4 -4 -3 -3 -2 -2 -2 -1 -1 -1
-3 -3 -3 -3 -3 -4 -5 -6 -6 -6 -6 -6 -6 -6 -6 -6 -4 -3 -4 -3 -3 -3 -2 -2 -2 -2 -2
-4 -4 -4 -4 -5 -5 -6 -7 -7 -7 -4 -6 -6 -6 -6 -4 -4 -4 -5 -4 -5 -4 -4 -3 -3 -3 -3
-5 -5 -5 -5 -6 -6 -7 -8 -7 -7 -7 -7 -6 -7 -7 -7 -6 -6 -6 -6 -5 -5 -5 -5 -5 -4 -4
-7 -7 -7 -7 -7 -7 -7 -7 -8 -8 -8 -8 -8 -8 -8 -8 -7 -6 -6 -6 -6 -6 -6 -5 -5 -5 -4
-8 -8 -8 -8 -7 -7 -7 -8 -8 -8 -7 -7 -8 -8 -8 -8 -7 -7 -7 -6 -6 -6 -6 -6 -5 -5 -6
-8 -8 -8 -8 -8 -8 -9 -9 -9 -8 -7 -7 -7 -8 -8 -8 -8 -7 -7 -7 -6 -6 -6 -6 -6 -6 -6
-9 -9 -9 -9 -9 -8 -8 -9 -9 -8 -8 -7 -7 -7 -8 -8 -8 -7 -7 -6 -6 -6 -6 -6 -5 -5 -5
-10 -9 -10 -10 -9 -9 -8 -9 -9 -9 -8 -8 -8 -8 -7 -6 -6 -7 -6 -6 -5 -5 -5 -5 -4 -3 -3
-9 -9 -9 -9 -8 -9 -9 -9 -8 -8 -8 -7 -7 -7 -6 -5 -4 -3 -4 -4 -4 -4 -3 -3 -3 -3 -3

GFSFLT2_925_temp_042.txt.gz
Temp
1 2 1 1 0 -0 -1 -1 -2 -2 -2 -2 -2 -1 -0 0 0 1 1 1 1 1 2 2 3 3 3
-0 -0 -0 -0 -1 -1 -1 -2 -2 -2 -3 -3 -2 -2 -1 -1 -1 -0 -0 -0 0 1 1 1 2 2 2
-2 -2 -1 -1 -1 -2 -2 -3 -3 -3 -3 -3 -3 -3 -2 -2 -1 -1 -0 -0 -0 -0 0 0 1 1 2
-2 -2 -2 -2 -2 -3 -4 -4 -4 -4 -3 -3 -4 -3 -3 -2 -2 -2 -2 -2 -2 -1 -1 -0 -0 0 1
-2 -3 -3 -3 -3 -3 -4 -5 -5 -4 -3 -3 -3 -4 -4 -3 -3 -3 -4 -3 -2 -2 -1 -1 -1 -0 -0
-2 -3 -4 -3 -4 -4 -5 -5 -4 -4 -4 -4 -5 -5 -4 -4 -3 -4 -3 -3 -2 -2 -1 -1 -1 -1 -1
-3 -3 -4 -3 -3 -4 -5 -5 -5 -5 -5 -5 -5 -5 -5 -4 -4 -4 -3 -3 -3 -2 -2 -1 -1 -1 -1
-3 -3 -3 -3 -3 -4 -4 -5 -5 -6 -5 -6 -5 -5 -5 -4 -5 -5 -4 -3 -3 -2 -2 -2 -1 -1 -1
-4 -4 -4 -4 -4 -5 -5 -6 -6 -6 -6 -6 -6 -6 -6 -6 -4 -3 -4 -3 -3 -3 -3 -3 -2 -2 -2
-4 -4 -4 -5 -5 -5 -6 -7 -8 -7 -5 -6 -6 -7 -6 -5 -4 -4 -5 -4 -5 -4 -4 -4 -3 -3 -3
-5 -5 -5 -5 -5 -6 -7 -8 -8 -8 -7 -7 -7 -7 -7 -7 -7 -6 -6 -6 -5 -5 -6 -5 -5 -4 -4
-7 -6 -7 -6 -6 -6 -6 -7 -8 -8 -7 -9 -8 -8 -8 -8 -8 -7 -7 -7 -7 -7 -7 -6 -6 -5 -4
-8 -8 -8 -7 -6 -6 -6 -6 -7 -7 -6 -7 -8 -8 -9 -8 -8 -8 -7 -6 -7 -7 -6 -6 -5 -6 -6
-8 -8 -8 -7 -7 -7 -8 -8 -9 -8 -7 -7 -7 -8 -8 -9 -8 -8 -8 -7 -6 -7 -7 -7 -7 -6 -6
-9 -9 -9 -8 -8 -8 -8 -9 -9 -9 -8 -7 -7 -7 -8 -8 -8 -8 -7 -7 -7 -7 -7 -6 -6 -6 -6
-9 -9 -9 -9 -9 -8 -8 -9 -9 -9 -9 -8 -8 -8 -7 -6 -6 -7 -7 -7 -6 -5 -5 -5 -4 -4 -4
-9 -8 -9 -9 -9 -8 -8 -9 -8 -8 -8 -8 -7 -6 -6 -6 -4 -3 -5 -5 -4 -4 -4 -4 -4 -3 -3